Regional Weather Roundup
Issued by NWS Charleston, SC

Current Version | Previous Version | Graphics & Text | Print | Product List | Glossary On
Versions: 1 2 3 4 5 6 7 8 9 10 11 12 13 14 15 16 17 18 19 20 21 22 23 24 25 26 27 28 29 30 31 32 33 34 35 36 37 38 39 40 41 42 43 44 45 46 47 48 49 50
060 ASUS42 KCHS 171312 RWRCHS Regional Weather Roundup National Weather Service Charleston SC 800 AM EST SUN DEC 17 2017 NOTE: "fair" indicates few or no clouds below 12,000 feet with no significant weather and/or obstructions to visibility. Not all stations are quality controlled. Use data with caution, especially dewpoint observations. SCZ027-030-031-034>040-042>050-171400- ...Southeast South Carolina... CITY SKY/WX TMP DP RH WIND PRES REMARKS N Charleston PTCLDY 34 34 100 CALM 30.30S FOG Waterfront Prk N/A 43 42 97 CALM 30.15S Mount Pleasant FAIR 34 34 100 CALM 30.31S FOG Johns Island FAIR 36 34 93 CALM 30.31R FOG Pinopolis N/A 39 39 100 CALM 30.23R Moncks Corner N/A 30 28 93 CALM 30.31S Summerville FOG 32 32 100 CALM 30.33R VSB 1/2 Beaufort MCAS CLOUDY 36 35 96 N3 30.31R FOG Beaufort Arpt FAIR 37 37 100 N3 30.30S FOG Hilton Head Is NOT AVBL Walterboro CLOUDY 30 28 93 CALM 30.34R Allendale FAIR 30 30 100 CALM 30.31R ...Southern Midlands and Pee Dee... CITY SKY/WX TMP DP RH WIND PRES REMARKS Georgetown FAIR 32 30 93 CALM 30.32F FOG Kingstree FAIR 28 28 100 CALM 30.32R Orangeburg CLOUDY 31 29 92 CALM 30.31R Barnwell N/A 30 28 93 CALM 30.30R Aiken FAIR 28 28 100 CALM 30.31R Manning FAIR 30 28 93 MISG 30.31S Columbia CLOUDY 30 28 92 CALM 30.30R Sumter PTCLDY 30 26 86 CALM 30.28R Florence CLOUDY 28 27 96 S3 30.31R FOG Myrtle Beach CLOUDY 32 30 92 CALM 30.33R FOG N Myrtle Beach PTCLDY 32 32 100 CALM 30.31R $$ GAZ063-065-086>088-099>101-113>116-118-119-134>141-150-171400- ...Southeast Georgia... CITY SKY/WX TMP DP RH WIND PRES REMARKS Savannah Arpt MOCLDY 37 35 92 CALM 30.32R Hunter AAF CLEAR 37 35 90 W1 30.28R Fort Stewart CLOUDY 36 34 93 CALM N/A Statesboro CLOUDY 34 34 100 CALM 30.31R Sylvania CLOUDY 33 33 100 CALM 30.32R FOG Claxton FAIR 34 33 97 CALM 30.31R ...CSRA, Central and far Southeast Georgia... CITY SKY/WX TMP DP RH WIND PRES REMARKS Thomson CLOUDY 29 27 94 CALM 30.33R FOG Augusta-Bush CLOUDY 28 27 96 CALM 30.31R Augusta-Daniel CLOUDY 35 30 82 CALM 30.29R Swainsboro FAIR 34 34 100 CALM 30.30R Vidalia CLOUDY 37 37 100 CALM 30.30R Eastman FAIR 34 29 83 CALM 30.32R HAZE Hazlehurst FAIR 42 34 74 CALM 30.29R Alma CLOUDY 39 37 92 CALM 30.29R FOG Waycross MOCLDY 40 38 91 CALM 30.31R FOG Jesup NOT AVBL Baxley FAIR 36 34 93 CALM 30.30R Brunswick CLOUDY 41 39 93 CALM 30.31R FOG Saint Simons CLOUDY 47 46 97 MISG 30.30R $$ SCZ027-028-034-036>038-045-046-048>050-GAZ119-141-171400- ...Lake and Supplemental Coastal Observations... STATION/POSITION TIME TEMP WIND PRES WAVE SWELL AIR SEA DIR/SP/G HT/PER HT/PER/DIR (UTC) (F) (DEG/KT/KT) (MB) (FT/S) (FT/S/D) Winyah Bay 1145 35 CALM 1026.0 Lake Murray 1220 37 CALM / 1 1024.7 ACE Basin NERRS 1145 35 CALM 1026.0 Fort Pulaski 1242 46 53 330/ 2/ 3 1026.5R Sapelo Island 1200 42 20/ 4 1025.0 $$ ANZ835-935-AMZ111-154-330-350-352-354-370-450-454-472-171400- ...C-MAN and Buoy Observations... STATION/POSITION TIME TEMP WIND PRES WAVE SWELL AIR SEA DIR/SP/G HT/PER HT/PER/DIR (UTC) (F) (DEG/KT/KT) (MB) (FT/S) (FT/S/D) Buoy 41004 1250 57 30/ 4/ 8 1026.1R 2/ 8 2/ 80/ 8 Buoy 41008 1250 57 59 70/ 8/ 8 1025.6R 2/11 2/130/11 Folly Beach CMAN 1200 44 300/ 2/ 2 1026.7R Capers Nearshore 1208 44 55 20/ 4/ 6 1025.8R STATION/POSITION TIME TEMP WIND PRES WAVE SWELL AIR SEA DIR/SP/G HT/PER HT/PER/DIR (UTC) (F) (DEG/KT/KT) (MB) (FT/S) (FT/S/D) 5E St. Marys GA 1230 61 N/A 2/11 Frying Pan Buoy 1250 55 69 50/ 6/ 8 1026.0R 2/10 2/110/10 Buoy 41025 1250 52 71 300/ 6/ 10 1027.1R 2/10 2/110/10 Cape Lookout NC 1200 330/ 5/ 6 1027.0R Buoy 41002 1150 63 74 360/ 4/ 6 1026.0 3/ 9 3/ 70/ 9 Buoy 41010 NOT AVBL St Augustine FL 1300 64 62 20/ 6/ 7 1025.2R $$

USA.gov is the U.S. government's official web portal to all federal, state and local government web resources and services.